Location: Béaulencourt
(50.0796°N, 2.8795°E)
Time: 09:50:31
(UTC+00:00)

SL-12 R/B(2) - Pass Details

Date: 20 January 2026
Orbit: 1171 x 2178 km, 63.4° (Epoch: 19 February)

Event Time Altitude Azimuth Distance (km) Brightness Sun altitude
Exits shadow 05:31:25 - 224° (SW) 3,611 6.1 -19.7°
Reaches altitude 10° 05:32:16 10° 224° (SW) 3,321 5.9 -19.6°
Maximum altitude 05:40:22 85° 314° (NW) 1,501 4.3 -18.3°
Drops below altitude 10° 05:50:27 10° 44° (NE) 4,068 7.1 -16.7°
Sets 05:53:57 0° 45° (NE) 5,202 7.8 -16.2°
